Weather History for Preston, MN

Change the Weather History Date:

Tuesday, January 29, 2013

  Actual Average (KRST) Record (KRST)
Temperature  
Mean Temperature 37 °F 16 °F  
Max Temperature 44 °F 24 °F 44 °F (1944)
Min Temperature 29 °F 8 °F -33 °F (1951)
Degree Days  
Heating Degree Days 28 49  
Month to date heating degree days 1434  
Since 1 July heating degree days 4512  
Cooling Degree Days 0 0  
Month to date cooling degree days 0  
Year to date cooling degree days 0  
Moisture  
Dew Point 34 °F    
Average Humidity 96    
Maximum Humidity 100    
Minimum Humidity 89    
Precipitation  
Precipitation 0.03 in 0.02 in 1.20 in (1909)
Month to date precipitation 0.80  
Year to date precipitation 0.80  
Snow  
Snow 0.00 in 0.40 in 4.60 in (1947)
Month to date snowfall 11.2  
Since 1 July snowfall 30.6  
Snow Depth -    
Sea Level Pressure  
Sea Level Pressure 29.56 in    
Wind  
Wind Speed 10 mph (NNW)    
Max Wind Speed 20 mph    
Max Gust Speed 29 mph    
Visibility 6 miles    
Events Fog , Rain , Thunderstorm    
T = Trace of Precipitation, MM = Missing Value Source: NWS Daily Summary

Daily Weather History Graph

Daily Weather History Graph

Search for Another Location

Airport:

Trip Planner

Search our weather history database for the weather conditions in past years. The results will help you decide how hot, cold, wet, or windy it might be!

Date:

Astronomy

Jan. 29, 2013 Rise Set
Actual Time 7:28 AM CST 5:16 PM CST
Civil Twilight 6:57 AM CST 5:46 PM CST
Nautical Twilight 6:22 AM CST 6:21 PM CST
Astronomical Twilight 5:49 AM CST 6:55 PM CST
Moon 8:20 PM CST (1/29) 8:18 AM CST (1/29)
Length of Visible Light 10h 49m
Length of Day
9h 47m
Waning Gibbous, 93% of the Moon is Illuminated
Jan 29
Waning Gibbous
Feb 3
Last Quarter
Feb 10
New
Feb 17
First Quarter
Feb 25
Full

Hourly Weather History & Observations

Time (CST) Temp. Windchill Dew Point Humidity Pressure Visibility Wind Dir Wind Speed Gust Speed Precip Events Conditions
12:09 AM 33.8 °F 28.6 °F 33.8 °F 100% 29.60 in 0.2 mi SE 5.8 mph - N/A Fog Fog
12:29 AM 34.3 °F 27.7 °F 34.3 °F 100% 29.60 in 0.2 mi SE 8.1 mph - N/A Thunderstorm Overcast
12:50 AM 35.6 °F 27.1 °F 35.6 °F 100% 29.57 in 0.2 mi SE 12.7 mph - 0.05 in Rain Light Rain
1:10 AM 36.5 °F 31.0 °F 36.5 °F 100% 29.56 in 0.5 mi SE 6.9 mph - N/A Rain Light Rain
1:29 AM 38.3 °F 33.9 °F 38.3 °F 100% 29.55 in 2.0 mi SSE 5.8 mph 9.2 mph 0.02 in Rain Light Rain
1:49 AM 40.3 °F 33.0 °F 40.3 °F 100% 29.53 in 3.0 mi South 12.7 mph 16.1 mph 0.02 in Thunderstorm Overcast
2:09 AM 41.4 °F 35.2 °F 41.4 °F 100% 29.52 in 1.0 mi South 10.4 mph 17.3 mph N/A Thunderstorm Overcast
2:29 AM 41.0 °F 35.2 °F 41.0 °F 100% 29.52 in 0.5 mi South 9.2 mph - N/A Fog Fog
2:49 AM 41.4 °F 34.7 °F 41.4 °F 100% 29.51 in 1.0 mi South 11.5 mph - N/A   Overcast
3:09 AM 40.5 °F 35.8 °F 40.5 °F 100% 29.51 in 0.2 mi South 6.9 mph - N/A Fog Fog
3:30 AM 41.4 °F 36.2 °F 41.4 °F 100% 29.50 in 0.2 mi South 8.1 mph - N/A Fog Fog
3:49 AM 42.8 °F 37.0 °F 42.8 °F 100% 29.50 in 0.2 mi South 10.4 mph - N/A Fog Fog
4:09 AM 43.0 °F 37.2 °F 43.0 °F 100% 29.50 in 0.2 mi SSW 10.4 mph - 0.01 in Rain Light Rain
4:30 AM 44.1 °F 41.5 °F 44.1 °F 100% 29.50 in 0.2 mi SW 4.6 mph - 0.01 in Fog Fog
4:49 AM 44.4 °F 40.0 °F 44.4 °F 100% 29.50 in 0.2 mi SW 8.1 mph - 0.01 in Fog Fog
5:09 AM 43.0 °F 39.5 °F 43.2 °F 100% 29.50 in 0.2 mi WSW 5.8 mph - N/A Fog Fog
5:30 AM 39.7 °F 33.7 °F 39.7 °F 100% 29.50 in 0.2 mi WNW 9.2 mph - N/A Fog Fog
5:50 AM 38.3 °F 33.9 °F 38.3 °F 100% 29.49 in 0.5 mi West 5.8 mph - N/A Fog Fog
6:10 AM 38.3 °F 31.4 °F 38.3 °F 100% 29.51 in 0.8 mi West 10.4 mph - N/A   Overcast
6:30 AM 38.3 °F 31.4 °F 38.3 °F 100% 29.52 in 1.0 mi WNW 10.4 mph - N/A   Overcast
6:49 AM 36.9 °F 29.1 °F 36.9 °F 100% 29.53 in 4.0 mi NW 11.5 mph - N/A   Overcast
7:09 AM 35.8 °F 28.8 °F 35.8 °F 100% 29.54 in 4.0 mi WNW 9.2 mph - N/A   Overcast
7:30 AM 35.1 °F 27.4 °F 35.1 °F 100% 29.53 in 4.0 mi NW 10.4 mph - N/A   Overcast
7:50 AM 34.3 °F 25.5 °F 34.3 °F 100% 29.55 in 5.0 mi NW 12.7 mph - N/A   Overcast
8:09 AM 34.0 °F 26.6 °F 34.0 °F 100% 29.53 in 5.0 mi NW 9.2 mph - N/A   Overcast
8:30 AM 33.8 °F 27.7 °F 33.8 °F 100% 29.52 in 5.0 mi NNW 6.9 mph - N/A   Overcast
8:50 AM 33.8 °F 26.4 °F 33.8 °F 100% 29.54 in 5.0 mi NW 9.2 mph - N/A   Overcast
9:09 AM 33.8 °F 25.3 °F 33.8 °F 100% 29.54 in 5.0 mi NNW 11.5 mph - N/A   Overcast
9:30 AM 33.1 °F 26.1 °F 33.3 °F 100% 29.57 in 7.0 mi WNW 8.1 mph - N/A   Overcast
9:50 AM 33.3 °F 25.7 °F 33.3 °F 100% 29.59 in 7.0 mi WNW 9.2 mph - N/A   Overcast
10:10 AM 33.4 °F 23.1 °F 33.4 °F 100% 29.58 in 7.0 mi WNW 16.1 mph - N/A   Overcast
10:30 AM 32.9 °F 22.4 °F 32.9 °F 100% 29.59 in 10.0 mi NW 16.1 mph - N/A   Overcast
10:50 AM 32.5 °F 22.3 °F 32.7 °F 100% 29.61 in 10.0 mi NW 15.0 mph - N/A   Overcast
11:10 AM 32.4 °F 23.5 °F 32.4 °F 100% 29.63 in 7.0 mi WNW 11.5 mph 16.1 mph N/A   Overcast
11:30 AM 32.4 °F 24.0 °F 32.4 °F 100% 29.62 in 7.0 mi NW 10.4 mph - N/A   Overcast
11:50 AM 32.4 °F 22.1 °F 32.2 °F 99% 29.61 in 5.0 mi NW 15.0 mph 18.4 mph N/A   Overcast
12:10 PM 32.0 °F 23.0 °F 32.0 °F 100% 29.60 in 4.0 mi NNW 11.5 mph 16.1 mph N/A   Overcast
12:30 PM 32.4 °F 24.0 °F 32.0 °F 99% 29.61 in 5.0 mi NW 10.4 mph - N/A   Overcast
12:49 PM 32.5 °F 24.2 °F 31.6 °F 96% 29.60 in 7.0 mi NNW 10.4 mph - N/A   Overcast
1:10 PM 32.9 °F 23.7 °F 31.5 °F 94% 29.57 in 10.0 mi North 12.7 mph - N/A   Overcast
1:30 PM 32.9 °F 23.2 °F 31.1 °F 93% 29.56 in 7.0 mi NNW 13.8 mph - N/A   Overcast
1:50 PM 32.9 °F 24.1 °F 31.1 °F 93% 29.57 in 7.0 mi North 11.5 mph - N/A   Overcast
2:09 PM 32.5 °F 24.2 °F 31.1 °F 94% 29.57 in 7.0 mi North 10.4 mph - N/A   Overcast
2:30 PM 32.5 °F 22.7 °F 31.1 °F 94% 29.55 in 7.0 mi North 13.8 mph 18.4 mph N/A   Overcast
2:50 PM 32.9 °F 23.7 °F 31.1 °F 93% 29.57 in 7.0 mi NNW 12.7 mph - N/A   Overcast
3:09 PM 32.5 °F 23.2 °F 31.1 °F 94% 29.57 in 7.0 mi North 12.7 mph - N/A   Overcast
3:30 PM 32.4 °F 22.5 °F 30.9 °F 94% 29.57 in 7.0 mi North 13.8 mph 19.6 mph N/A   Overcast
3:49 PM 32.2 °F 22.7 °F 30.9 °F 95% 29.57 in 7.0 mi North 12.7 mph 20.7 mph N/A   Overcast
4:10 PM 32.0 °F 23.0 °F 30.9 °F 96% 29.59 in 7.0 mi North 11.5 mph - N/A   Overcast
4:30 PM 32.0 °F 21.6 °F 30.7 °F 95% 29.57 in 10.0 mi North 15.0 mph - N/A   Overcast
4:49 PM 32.0 °F 23.0 °F 30.6 °F 94% 29.57 in 10.0 mi North 11.5 mph - N/A   Overcast
5:10 PM 32.0 °F 22.5 °F 30.2 °F 93% 29.57 in 10.0 mi North 12.7 mph 18.4 mph N/A   Overcast
5:30 PM 32.0 °F 23.0 °F 30.0 °F 92% 29.60 in 10.0 mi North 11.5 mph - N/A   Overcast
5:49 PM 32.0 °F 22.1 °F 30.0 °F 92% 29.59 in 10.0 mi North 13.8 mph - N/A   Overcast
6:10 PM 32.0 °F 22.1 °F 30.2 °F 93% 29.61 in 10.0 mi North 13.8 mph 19.6 mph N/A   Overcast
6:30 PM 32.0 °F 22.1 °F 30.0 °F 92% 29.59 in 10.0 mi North 13.8 mph 18.4 mph N/A   Overcast
6:49 PM 32.0 °F 22.5 °F 29.8 °F 92% 29.55 in 10.0 mi North 12.7 mph 21.9 mph N/A   Overcast
7:09 PM 32.0 °F 22.5 °F 30.0 °F 92% 29.58 in 10.0 mi North 12.7 mph 17.3 mph N/A   Overcast
7:30 PM 32.0 °F 21.2 °F 30.0 °F 92% 29.57 in 10.0 mi North 16.1 mph 21.9 mph N/A   Overcast
7:49 PM 32.0 °F 22.5 °F 30.0 °F 92% 29.61 in 10.0 mi North 12.7 mph 20.7 mph N/A   Overcast
8:10 PM 32.0 °F 22.5 °F 30.0 °F 92% 29.61 in 10.0 mi North 12.7 mph 20.7 mph N/A   Overcast
8:30 PM 32.0 °F 22.5 °F 29.8 °F 92% 29.59 in 10.0 mi North 12.7 mph 19.6 mph N/A   Overcast
8:49 PM 32.0 °F 20.1 °F 30.0 °F 92% 29.53 in 10.0 mi North 19.6 mph 23.0 mph N/A   Overcast
9:10 PM 32.0 °F 22.5 °F 30.2 °F 93% 29.58 in 10.0 mi North 12.7 mph 20.7 mph N/A   Overcast
9:30 PM 32.0 °F 22.1 °F 30.0 °F 92% 29.60 in 10.0 mi North 13.8 mph 20.7 mph N/A   Overcast
9:49 PM 32.0 °F 22.1 °F 29.7 °F 91% 29.60 in 10.0 mi North 13.8 mph 21.9 mph N/A   Overcast
10:10 PM 32.0 °F 20.1 °F 29.3 °F 90% 29.60 in 10.0 mi North 19.6 mph 23.0 mph N/A   Overcast
10:30 PM 32.0 °F 20.8 °F 29.1 °F 89% 29.62 in 10.0 mi North 17.3 mph 28.8 mph N/A   Overcast
10:50 PM 31.6 °F 21.6 °F 28.9 °F 90% 29.59 in 10.0 mi North 13.8 mph 23.0 mph N/A   Overcast
11:09 PM 30.7 °F 18.8 °F 28.4 °F 91% 29.57 in 10.0 mi North 18.4 mph 25.3 mph N/A   Overcast
11:29 PM 30.2 °F 19.8 °F 27.9 °F 91% 29.63 in 7.0 mi North 13.8 mph 20.7 mph N/A   Overcast
11:49 PM 29.7 °F 18.6 °F 27.3 °F 91% 29.60 in 10.0 mi North 15.0 mph - N/A   Overcast